CAPE
0 0 0 0 0 0 0 0 0 0 0 0 0 0 0 0 0 0 0 0 0 0 0 173 679 649 808 1192 1187 1210 1256 1053 856 527 300 171 156 238 112 71 95 124 133 89 59 4 6 4 21
0 0 0 0 0 0 0 0 0 0 0 0 0 0 0 0 0 0 0 0 0 0 0 0 313 331 295 327 343 610 470 489 167 151 50 0 12 65 29 6 2 4 3 23 15 3 2 3 3
0 0 0 0 0 0 0 0 0 0 0 0 0 0 0 0 0 0 0 0 0 0 0 0 56 170 149 137 212 137 169 233 165 22 3 3 3 4 2 0 0 0 0 0 0 0 0 0 0
0 0 0 0 0 0 0 0 0 0 0 0 0 0 0 0 0 0 0 0 0 0 0 0 5 7 4 1 4 2 3 9 5 3 3 0 0 0 0 0 0 0 0 0 0 0 0 0 0
0 0 0 0 0 0 0 0 0 0 0 0 0 0 0 0 0 0 0 0 0 0 0 0 8 5 1 2 7 7 7 1 0 0 0 0 0 0 0 0 0 0 0 0 0 0 0 0 0
0 0 0 0 0 0 0 0 0 0 0 0 0 0 0 0 0 0 0 0 0 0 0 0 1 2 1 0 0 0 0 0 0 0 0 0 0 0 0 0 0 0 0 0 0 0 0 0 0
0 0 0 0 0 0 0 0 0 0 0 0 0 0 0 0 0 0 0 0 0 0 0 0 0 0 0 0 0 0 0 0 0 0 0 0 0 0 0 0 0 0 0 0 0 0 0 0 0
0 0 0 0 0 0 0 0 0 0 0 0 0 0 0 0 0 0 0 0 0 0 0 0 0 0 0 0 0 0 0 0 0 0 0 0 0 0 0 0 0 0 0 0 0 0 0 0 0
0 0 0 0 0 0 0 0 0 0 0 0 0 0 0 0 0 0 0 0 0 0 0 0 0 0 0 0 0 0 0 0 0 0 0 0 0 0 0 0 0 0 0 0 0 0 0 0 0
0 0 0 0 0 0 0 0 0 0 0 0 0 0 0 0 0 0 0 0 0 0 0 0 0 0 0 0 0 0 0 0 0 0 0 0 0 0 0 0 0 0 0 0 0 0 0 0 0
0 0 0 0 0 0 0 0 0 0 0 0 0 0 0 0 0 0 0 0 0 0 0 0 0 0 0 0 0 0 0 0 0 0 0 0 0 0 0 0 0 0 0 0 0 0 0 0 0
0 0 0 0 0 0 0 0 0 0 0 0 0 0 0 0 0 0 0 0 0 0 0 0 0 0 0 0 0 0 0 0 0 0 0 0 0 0 0 0 0 0 0 0 0 0 0 0 0
0 0 0 0 0 0 0 0 0 0 0 0 0 0 0 0 0 0 0 0 0 0 0 0 0 0 0 0 0 0 0 0 0 0 0 0 0 0 0 0 0 0 0 0 0 0 0 0 0
0 0 0 0 0 0 0 0 0 0 0 0 0 0 0 0 0 0 0 0 0 0 0 0 0 0 0 0 0 0 0 0 0 0 0 0 0 0 0 0 0 0 0 0 0 0 0 0 0
0 0 0 0 0 0 0 0 0 0 0 0 0 0 0 0 0 0 0 0 0 0 0 0 0 0 0 0 0 0 0 0 0 0 0 0 0 0 0 0 0 0 0 0 0 0 0 0 0
0 0 0 0 0 0 0 0 0 0 0 0 0 0 0 0 0 0 0 0 0 0 0 0 0 0 0 0 0 0 0 0 0 0 0 0 0 0 0 0 0 0 0 0 0 0 0 0 0
0 0 0 0 0 0 0 0 0 0 0 0 0 0 0 0 0 0 0 0 0 0 0 0 0 0 0 0 0 0 0 0 0 0 0 0 0 0 0 0 0 0 0 0 0 0 0 0 0
0 0 0 0 0 0 0 0 0 0 0 0 0 0 0 0 0 0 0 0 0 0 0 0 0 0 0 0 0 0 0 0 0 0 0 0 0 0 0 0 0 0 0 0 0 0 0 0 0
0 0 0 0 0 0 0 0 0 0 0 0 0 0 0 0 0 0 0 0 0 0 0 0 0 0 0 0 0 0 0 0 0 0 0 0 0 0 0 0 0 0 0 0 0 0 0 0 0
0 0 0 0 0 0 0 0 0 0 0 0 0 0 0 0 0 0 0 0 0 0 0 0 0 0 0 0 0 0 0 0 0 0 0 0 0 0 0 0 0 0 0 0 0 0 0 0 0
0 0 0 0 0 0 0 0 0 0 0 0 0 0 0 0 0 0 0 0 0 0 0 0 0 0 0 0 0 0 0 0 0 0 0 0 0 0 0 0 0 0 0 0 0 0 0 0 0
0 0 0 0 0 0 0 0 0 0 0 0 0 0 0 0 0 0 0 0 0 0 0 0 0 0 0 0 0 0 0 0 0 0 0 0 0 0 0 0 0 0 0 0 0 0 0 0 0
0 0 0 0 0 0 0 0 0 0 0 0 0 0 0 0 0 0 0 0 0 0 0 0 0 0 0 0 0 0 0 0 0 0 0 0 0 0 0 0 0 0 0 0 0 0 0 0 0
0 0 0 0 0 0 0 0 0 0 0 0 0 0 0 0 0 0 0 0 0 0 0 0 0 0 0 0 0 0 0 0 0 0 0 0 0 0 0 0 0 0 0 0 0 0 0 0 0
0 0 0 0 0 0 0 0 0 0 0 0 0 0 0 0 0 0 0 0 0 0 0 0 0 0 0 0 0 0 0 0 0 0 0 0 0 0 0 0 0 0 0 0 0 0 0 0 0
0 0 0 0 0 0 0 0 0 0 0 0 0 0 0 0 0 0 0 0 0 0 0 0 0 0 0 0 0 0 0 0 0 0 0 0 0 0 0 0 0 0 0 0 0 0 0 0 0
0 0 0 0 0 0 0 0 0 0 0 0 0 0 0 0 0 0 0 0 0 0 0 0 0 0 0 0 0 0 0 0 0 0 0 0 0 0 0 0 0 0 0 0 0 0 0 0 0
0 0 0 0 0 0 0 0 0 0 0 0 0 0 0 0 0 0 0 0 0 0 0 0 0 0 0 0 0 0 0 0 0 0 0 0 0 0 0 0 0 0 0 0 0 0 0 0 0
0 0 0 0 0 0 0 0 0 0 0 0 0 0 0 0 0 0 0 0 0 0 0 0 0 0 0 0 0 0 0 0 0 0 0 0 0 0 0 0 0 0 0 0 0 0 0 0 0
0 0 0 0 0 0 0 0 0 0 0 0 0 0 0 0 0 0 0 0 0 0 0 0 0 0 0 0 0 0 0 0 0 0 0 0 0 0 0 0 0 0 0 0 0 0 0 0 0
CIN
-0 -0 -0 -0 -0 -0 -0 -0 -0 -0 -0 -0 -0 -0 -0 -0 -0 -0 -0 -0 -0 -0 -0 -336 -107 -93 -49 -8 -1 -0 -0 -0 -9 -44 -108 -176 -169 -115 -194 -232 -218 -161 -139 -175 -207 -29 -0 -0 -126
-0 -0 -0 -0 -0 -0 -0 -0 -0 -0 -0 -0 -0 -0 -0 -0 -0 -0 -0 -0 -0 -0 -0 -0 -243 -203 -223 -212 -190 -87 -127 -114 -212 -220 -303 -0 -58 -261 -173 -1 -0 -0 -0 -165 -72 -0 -0 -0 -0
-0 -0 -0 -0 -0 -0 -0 -0 -0 -0 -0 -0 -0 -0 -0 -0 -0 -0 -0 -0 -0 -0 -0 -0 -397 -297 -297 -310 -240 -263 -253 -211 -225 -198 -1 -0 -0 -0 -0 -0 -0 -0 -0 -0 -0 -0 -0 -0 -0
-0 -0 -0 -0 -0 -0 -0 -0 -0 -0 -0 -0 -0 -0 -0 -0 -0 -0 -0 -0 -0 -0 -0 -0 -0 -11 -12 -1 -312 -0 -1 -10 -0 -0 -0 -0 -0 -0 -0 -0 -0 -0 -0 -0 -0 -0 -0 -0 -0
-0 -0 -0 -0 -0 -0 -0 -0 -0 -0 -0 -0 -0 -0 -0 -0 -0 -0 -0 -0 -0 -0 -0 -0 -0 -0 -0 -0 -0 -0 -0 -0 -0 -0 -0 -0 -0 -0 -0 -0 -0 -0 -0 -0 -0 -0 -0 -0 -0
-0 -0 -0 -0 -0 -0 -0 -0 -0 -0 -0 -0 -0 -0 -0 -0 -0 -0 -0 -0 -0 -0 -0 -0 -0 -0 -0 -0 -0 -0 -0 -0 -0 -0 -0 -0 -0 -0 -0 -0 -0 -0 -0 -0 -0 -0 -0 -0 -0
-0 -0 -0 -0 -0 -0 -0 -0 -0 -0 -0 -0 -0 -0 -0 -0 -0 -0 -0 -0 -0 -0 -0 -0 -0 -0 -0 -0 -0 -0 -0 -0 -0 -0 -0 -0 -0 -0 -0 -0 -0 -0 -0 -0 -0 -0 -0 -0 -0
-0 -0 -0 -0 -0 -0 -0 -0 -0 -0 -0 -0 -0 -0 -0 -0 -0 -0 -0 -0 -0 -0 -0 -0 -0 -0 -0 -0 -0 -0 -0 -0 -0 -0 -0 -0 -0 -0 -0 -0 -0 -0 -0 -0 -0 -0 -0 -0 -0
-0 -0 -0 -0 -0 -0 -0 -0 -0 -0 -0 -0 -0 -0 -0 -0 -0 -0 -0 -0 -0 -0 -0 -0 -0 -0 -0 -0 -0 -0 -0 -0 -0 -0 -0 -0 -0 -0 -0 -0 -0 -0 -0 -0 -0 -0 -0 -0 -0
-0 -0 -0 -0 -0 -0 -0 -0 -0 -0 -0 -0 -0 -0 -0 -0 -0 -0 -0 -0 -0 -0 -0 -0 -0 -0 -0 -0 -0 -0 -0 -0 -0 -0 -0 -0 -0 -0 -0 -0 -0 -0 -0 -0 -0 -0 -0 -0 -0
-0 -0 -0 -0 -0 -0 -0 -0 -0 -0 -0 -0 -0 -0 -0 -0 -0 -0 -0 -0 -0 -0 -0 -0 -0 -0 -0 -0 -0 -0 -0 -0 -0 -0 -0 -0 -0 -0 -0 -0 -0 -0 -0 -0 -0 -0 -0 -0 -0
-0 -0 -0 -0 -0 -0 -0 -0 -0 -0 -0 -0 -0 -0 -0 -0 -0 -0 -0 -0 -0 -0 -0 -0 -0 -0 -0 -0 -0 -0 -0 -0 -0 -0 -0 -0 -0 -0 -0 -0 -0 -0 -0 -0 -0 -0 -0 -0 -0
-0 -0 -0 -0 -0 -0 -0 -0 -0 -0 -0 -0 -0 -0 -0 -0 -0 -0 -0 -0 -0 -0 -0 -0 -0 -0 -0 -0 -0 -0 -0 -0 -0 -0 -0 -0 -0 -0 -0 -0 -0 -0 -0 -0 -0 -0 -0 -0 -0
-0 -0 -0 -0 -0 -0 -0 -0 -0 -0 -0 -0 -0 -0 -0 -0 -0 -0 -0 -0 -0 -0 -0 -0 -0 -0 -0 -0 -0 -0 -0 -0 -0 -0 -0 -0 -0 -0 -0 -0 -0 -0 -0 -0 -0 -0 -0 -0 -0
-0 -0 -0 -0 -0 -0 -0 -0 -0 -0 -0 -0 -0 -0 -0 -0 -0 -0 -0 -0 -0 -0 -0 -0 -0 -0 -0 -0 -0 -0 -0 -0 -0 -0 -0 -0 -0 -0 -0 -0 -0 -0 -0 -0 -0 -0 -0 -0 -0
-0 -0 -0 -0 -0 -0 -0 -0 -0 -0 -0 -0 -0 -0 -0 -0 -0 -0 -0 -0 -0 -0 -0 -0 -0 -0 -0 -0 -0 -0 -0 -0 -0 -0 -0 -0 -0 -0 -0 -0 -0 -0 -0 -0 -0 -0 -0 -0 -0
-0 -0 -0 -0 -0 -0 -0 -0 -0 -0 -0 -0 -0 -0 -0 -0 -0 -0 -0 -0 -0 -0 -0 -0 -0 -0 -0 -0 -0 -0 -0 -0 -0 -0 -0 -0 -0 -0 -0 -0 -0 -0 -0 -0 -0 -0 -0 -0 -0
-0 -0 -0 -0 -0 -0 -0 -0 -0 -0 -0 -0 -0 -0 -0 -0 -0 -0 -0 -0 -0 -0 -0 -0 -0 -0 -0 -0 -0 -0 -0 -0 -0 -0 -0 -0 -0 -0 -0 -0 -0 -0 -0 -0 -0 -0 -0 -0 -0
-0 -0 -0 -0 -0 -0 -0 -0 -0 -0 -0 -0 -0 -0 -0 -0 -0 -0 -0 -0 -0 -0 -0 -0 -0 -0 -0 -0 -0 -0 -0 -0 -0 -0 -0 -0 -0 -0 -0 -0 -0 -0 -0 -0 -0 -0 -0 -0 -0
-0 -0 -0 -0 -0 -0 -0 -0 -0 -0 -0 -0 -0 -0 -0 -0 -0 -0 -0 -0 -0 -0 -0 -0 -0 -0 -0 -0 -0 -0 -0 -0 -0 -0 -0 -0 -0 -0 -0 -0 -0 -0 -0 -0 -0 -0 -0 -0 -0
-0 -0 -0 -0 -0 -0 -0 -0 -0 -0 -0 -0 -0 -0 -0 -0 -0 -0 -0 -0 -0 -0 -0 -0 -0 -0 -0 -0 -0 -0 -0 -0 -0 -0 -0 -0 -0 -0 -0 -0 -0 -0 -0 -0 -0 -0 -0 -0 -0
-0 -0 -0 -0 -0 -0 -0 -0 -0 -0 -0 -0 -0 -0 -0 -0 -0 -0 -0 -0 -0 -0 -0 -0 -0 -0 -0 -0 -0 -0 -0 -0 -0 -0 -0 -0 -0 -0 -0 -0 -0 -0 -0 -0 -0 -0 -0 -0 -0
-0 -0 -0 -0 -0 -0 -0 -0 -0 -0 -0 -0 -0 -0 -0 -0 -0 -0 -0 -0 -0 -0 -0 -0 -0 -0 -0 -0 -0 -0 -0 -0 -0 -0 -0 -0 -0 -0 -0 -0 -0 -0 -0 -0 -0 -0 -0 -0 -0
-0 -0 -0 -0 -0 -0 -0 -0 -0 -0 -0 -0 -0 -0 -0 -0 -0 -0 -0 -0 -0 -0 -0 -0 -0 -0 -0 -0 -0 -0 -0 -0 -0 -0 -0 -0 -0 -0 -0 -0 -0 -0 -0 -0 -0 -0 -0 -0 -0
-0 -0 -0 -0 -0 -0 -0 -0 -0 -0 -0 -0 -0 -0 -0 -0 -0 -0 -0 -0 -0 -0 -0 -0 -0 -0 -0 -0 -0 -0 -0 -0 -0 -0 -0 -0 -0 -0 -0 -0 -0 -0 -0 -0 -0 -0 -0 -0 -0
-0 -0 -0 -0 -0 -0 -0 -0 -0 -0 -0 -0 -0 -0 -0 -0 -0 -0 -0 -0 -0 -0 -0 -0 -0 -0 -0 -0 -0 -0 -0 -0 -0 -0 -0 -0 -0 -0 -0 -0 -0 -0 -0 -0 -0 -0 -0 -0 -0
-0 -0 -0 -0 -0 -0 -0 -0 -0 -0 -0 -0 -0 -0 -0 -0 -0 -0 -0 -0 -0 -0 -0 -0 -0 -0 -0 -0 -0 -0 -0 -0 -0 -0 -0 -0 -0 -0 -0 -0 -0 -0 -0 -0 -0 -0 -0 -0 -0
-0 -0 -0 -0 -0 -0 -0 -0 -0 -0 -0 -0 -0 -0 -0 -0 -0 -0 -0 -0 -0 -0 -0 -0 -0 -0 -0 -0 -0 -0 -0 -0 -0 -0 -0 -0 -0 -0 -0 -0 -0 -0 -0 -0 -0 -0 -0 -0 -0
-0 -0 -0 -0 -0 -0 -0 -0 -0 -0 -0 -0 -0 -0 -0 -0 -0 -0 -0 -0 -0 -0 -0 -0 -0 -0 -0 -0 -0 -0 -0 -0 -0 -0 -0 -0 -0 -0 -0 -0 -0 -0 -0 -0 -0 -0 -0 -0 -0
-0 -0 -0 -0 -0 -0 -0 -0 -0 -0 -0 -0 -0 -0 -0 -0 -0 -0 -0 -0 -0 -0 -0 -0 -0 -0 -0 -0 -0 -0 -0 -0 -0 -0 -0 -0 -0 -0 -0 -0 -0 -0 -0 -0 -0 -0 -0 -0 -0
Wind_Speed
4 3 2 5 5 5 4 6 1 2 1 2 1 3 6 2 6 6 2 7 11 9 7 6 10 12 10 10 14 12 13 13 14 13 11 12 9 11 12 11 12 13 12 12 13 11 11 11 12
3 1 5 3 5 2 6 5 5 5 4 5 2 4 1 5 3 5 6 9 11 9 7 7 11 12 10 8 7 8 7 8 8 10 11 9 9 11 12 11 10 9 9 10 11 10 11 11 11
2 3 4 4 3 4 5 5 6 2 2 4 2 1 5 4 3 10 6 11 11 7 6 7 11 14 12 10 8 9 8 9 11 12 9 9 9 10 10 10 10 10 10 11 10 11 11 11 11
3 5 5 4 6 8 6 5 5 5 2 1 2 2 2 3 7 9 10 12 11 8 7 9 13 14 14 14 14 13 12 12 12 12 12 12 11 10 10 10 11 10 10 10 10 11 11 12 12
4 3 3 1 6 6 6 3 9 5 3 4 5 4 4 3 1 10 14 11 13 7 7 7 13 14 15 15 16 15 15 15 14 14 13 12 12 11 10 10 10 10 11 11 10 11 11 10 11
4 4 3 3 6 5 4 6 5 5 3 2 3 2 5 1 8 9 9 9 10 10 7 6 10 13 15 16 17 16 16 15 14 14 14 13 13 12 10 10 10 10 9 10 10 11 12 12 12
5 4 4 4 5 5 5 8 5 6 5 6 2 6 2 3 7 9 9 8 8 8 7 6 6 8 11 12 13 14 15 15 14 13 14 14 13 11 10 10 10 10 10 11 11 12 12 11 12
6 5 3 4 3 6 2 3 1 7 8 1 8 7 7 7 10 7 6 7 7 7 7 7 6 5 5 6 11 12 14 15 15 15 14 13 13 12 11 8 9 10 11 11 12 12 11 11 12
3 4 3 6 3 5 0 3 2 2 1 3 7 4 2 7 10 7 6 5 6 7 10 8 8 7 6 5 6 11 14 14 14 13 10 9 5 6 6 8 11 10 11 10 11 10 11 10 11
4 4 9 6 2 4 3 6 4 2 5 5 5 2 4 9 13 13 11 13 13 13 10 11 9 8 7 6 6 6 6 5 6 6 6 5 5 5 5 7 10 10 9 10 10 10 10 8 4
5 7 6 7 5 4 4 4 5 5 9 9 11 10 9 8 12 14 15 15 20 14 9 13 12 10 9 7 4 3 3 4 4 7 6 5 4 4 4 3 3 3 6 3 5 5 4 5 4
4 9 7 6 4 3 5 2 5 10 20 8 14 4 10 14 16 18 17 17 13 14 15 13 12 11 9 5 6 5 5 4 4 5 6 5 3 4 4 3 4 4 2 3 3 2 4 5 5
7 6 7 7 8 6 4 11 8 14 14 9 9 8 12 16 17 15 15 10 9 12 15 15 14 13 11 9 6 5 5 5 5 5 5 5 5 5 4 4 4 3 3 2 3 3 3 4 5
2 5 7 7 10 7 7 9 7 21 5 12 11 16 12 16 21 13 10 16 15 15 15 14 16 13 12 10 10 7 5 5 5 5 5 6 5 5 5 5 4 3 3 2 3 3 4 4 4
3 8 7 10 7 8 7 9 13 26 2 11 11 12 11 19 12 22 23 20 20 17 14 17 17 14 15 13 10 7 7 7 6 5 6 7 6 6 6 5 4 4 4 4 2 3 3 4 4
3 1 5 2 7 5 9 15 13 15 7 17 14 12 11 16 18 21 17 17 15 14 18 17 16 17 16 14 11 8 7 7 6 5 5 8 7 7 6 5 4 4 3 3 3 3 3 4 4
2 7 9 14 11 5 7 12 12 6 9 12 13 12 13 16 13 16 16 16 15 19 17 18 18 20 17 12 10 8 8 7 7 6 5 6 6 7 6 5 5 5 4 3 2 3 2 3 4
9 7 7 8 4 5 7 17 16 11 8 13 13 12 12 14 23 18 13 16 16 16 17 17 15 17 15 10 6 4 6 5 6 6 6 7 6 7 6 5 5 4 4 3 2 2 3 2 2
3 6 8 8 10 6 11 17 19 22 10 11 16 19 20 21 26 12 11 13 13 12 15 18 19 18 15 11 10 7 10 7 5 6 8 8 7 7 7 5 5 5 5 4 3 3 3 3 4
12 18 20 16 15 6 16 24 19 12 19 21 19 22 21 19 21 7 9 9 14 17 17 18 19 20 17 13 10 6 7 3 5 6 8 8 9 7 7 7 6 6 4 4 3 3 3 2 4
16 15 19 19 6 6 9 20 12 14 15 20 14 20 21 26 23 12 9 11 9 15 18 20 20 20 17 14 9 5 6 4 3 5 5 7 8 8 7 7 6 6 5 5 4 4 6 4 1
23 13 14 9 4 13 5 28 7 8 13 12 14 17 19 23 17 14 9 8 12 15 13 16 17 18 15 16 14 13 12 10 7 8 5 6 9 9 8 8 7 6 4 6 5 4 4 5 4
22 4 6 3 4 6 4 7 4 8 8 13 15 16 20 20 13 13 11 13 10 11 14 14 15 16 14 16 16 12 10 7 4 4 9 8 6 7 7 7 7 7 5 5 6 5 6 4 5
1 4 4 4 1 13 11 10 5 7 8 6 10 15 16 19 10 8 5 8 7 8 11 13 15 15 15 16 15 17 17 10 9 9 11 9 7 7 8 7 6 6 5 6 5 5 6 5 5
4 5 4 4 1 15 10 7 18 8 9 12 14 17 14 14 6 7 9 10 11 14 13 12 15 15 16 18 19 19 17 15 16 13 11 12 9 8 11 9 9 6 5 5 5 5 5 6 5
11 11 9 8 11 21 4 13 12 12 12 11 11 14 13 9 8 10 11 11 12 14 13 14 16 15 16 19 20 16 16 11 10 12 10 10 11 10 10 9 8 8 8 7 6 4 3 5 5
2 6 11 2 2 2 10 15 10 2 9 7 10 13 18 11 8 9 7 8 10 11 15 17 16 16 17 17 14 15 13 13 13 11 10 10 8 7 10 11 10 9 9 9 8 5 6 5 4
7 4 1 2 6 9 12 6 16 9 5 8 15 17 18 9 3 2 5 7 5 7 10 12 14 18 12 12 13 12 14 13 11 9 12 11 9 11 13 13 11 10 9 8 8 5 6 7 5
2 5 6 3 4 12 16 16 6 9 1 6 12 12 10 11 5 7 7 7 7 7 9 11 11 11 12 15 15 14 14 14 11 12 12 13 13 14 15 15 14 12 11 9 8 7 7 7 7
7 16 17 11 12 6 6 11 31 29 18 19 17 12 7 9 10 9 8 6 7 9 9 16 15 15 19 16 15 16 13 14 15 14 14 14 15 14 15 15 15 13 12 10 10 9 8 9 8
Wind_Direction
316 341 56 38 42 57 277 270 257 176 159 244 141 151 183 123 164 207 270 148 142 150 152 153 155 157 158 145 140 138 137 133 122 105 93 89 80 75 77 60 43 38 40 48 50 45 34 24 15
326 86 43 79 85 26 270 254 211 212 184 144 128 108 109 216 140 146 132 187 150 149 149 156 164 167 156 128 117 129 115 121 123 110 99 102 106 87 81 71 63 53 48 48 48 37 31 25 20
279 51 83 100 121 199 229 241 216 230 198 189 121 295 162 207 165 173 213 155 144 146 152 162 168 166 159 146 141 139 125 113 104 103 124 116 103 102 96 89 78 66 60 59 47 36 29 24 20
61 13 30 93 234 257 232 237 199 158 299 349 124 236 293 182 165 180 153 140 139 151 153 162 167 160 156 153 153 160 160 132 122 131 124 115 109 99 91 86 79 71 65 57 48 41 34 25 18
37 59 62 303 254 257 254 208 168 179 204 203 157 252 248 254 138 141 153 147 145 151 156 160 167 162 159 156 152 156 149 145 141 136 130 126 116 104 96 89 82 75 68 60 55 47 41 36 32
43 94 66 238 251 257 261 173 176 199 209 158 176 168 246 46 139 166 152 145 149 151 158 166 168 167 164 161 158 157 152 149 147 144 136 130 124 115 108 100 89 87 85 75 66 56 51 45 43
113 94 219 234 256 296 233 153 192 203 184 237 168 170 254 204 206 161 158 139 148 153 151 158 163 169 168 162 161 159 158 155 153 147 138 130 125 119 114 107 100 103 91 80 72 68 53 50 44
111 102 284 257 254 269 274 201 204 170 235 88 163 233 252 217 174 149 143 145 156 163 165 167 164 153 154 160 161 161 160 160 157 151 145 140 132 121 118 101 96 96 82 77 74 69 59 49 41
94 68 241 247 229 265 189 242 263 333 198 222 208 183 292 118 131 136 151 169 176 191 181 175 172 169 168 163 166 161 162 161 160 155 152 128 136 129 113 105 96 90 85 79 76 69 61 57 45
110 144 226 219 223 235 243 208 227 210 237 242 272 260 86 135 161 175 187 191 196 198 195 182 177 176 169 174 168 159 159 155 151 157 153 146 142 137 120 93 91 82 73 73 69 61 53 45 42
188 211 223 263 243 210 233 236 204 198 255 214 214 229 167 173 187 196 204 202 201 198 189 190 181 179 174 176 166 169 161 161 166 166 162 159 143 125 116 100 91 83 63 44 48 40 41 35 31
221 238 228 262 253 291 254 248 236 197 245 200 226 193 167 191 199 203 208 209 195 190 193 185 184 179 181 158 175 175 169 169 173 178 168 148 145 134 130 123 117 96 83 81 66 47 45 38 24
221 248 237 251 279 262 290 245 246 262 246 244 242 198 197 203 213 218 219 218 197 200 196 191 181 181 180 175 172 173 178 175 173 172 175 160 158 152 142 131 124 121 120 118 88 75 54 39 15
249 275 271 267 255 254 211 266 143 267 249 239 241 238 214 210 216 214 209 215 202 203 199 185 188 183 175 180 179 182 169 167 166 173 182 176 158 153 146 138 136 131 140 136 99 77 54 34 15
313 310 309 251 245 236 177 286 223 246 248 275 250 248 235 221 213 217 219 214 203 204 189 188 184 178 179 182 179 173 175 167 173 174 176 171 166 167 147 145 149 161 164 126 117 78 67 46 13
316 347 306 312 139 250 141 264 247 251 208 257 263 259 244 246 222 229 223 219 204 193 189 184 185 182 182 181 176 175 172 168 172 169 172 177 170 156 152 145 157 155 134 135 105 66 56 36 9
275 235 217 304 205 154 182 250 265 229 201 256 264 260 259 267 253 235 215 210 195 196 187 186 183 182 181 173 171 165 164 169 176 168 171 171 168 162 143 151 158 157 140 111 106 70 78 28 352
221 219 246 240 249 193 231 252 270 268 199 240 262 268 261 257 254 249 206 209 204 197 189 183 180 175 169 158 138 136 159 169 169 173 173 171 172 165 154 153 157 149 134 128 113 116 65 49 342
207 227 235 251 268 234 233 245 250 266 268 253 257 260 258 255 262 226 207 204 195 189 180 177 170 172 163 165 165 169 186 182 176 177 176 174 174 169 161 158 155 160 155 164 155 112 89 42 341
242 256 261 269 257 214 266 261 262 256 262 260 256 260 256 256 259 235 215 193 190 189 184 175 177 172 176 173 174 173 164 171 173 177 180 179 177 174 165 162 164 164 148 146 148 147 117 85 11
231 237 253 257 318 240 290 274 259 250 254 263 248 248 261 257 268 252 209 206 185 184 183 178 178 174 175 168 143 103 90 80 135 187 183 189 177 175 168 168 161 165 152 160 175 170 144 136 81
261 225 257 264 307 276 128 292 236 249 244 253 253 259 252 260 257 257 209 195 193 193 177 173 170 172 173 165 169 171 186 183 195 186 175 177 179 182 177 169 163 164 160 165 176 183 143 125 131
254 203 255 237 228 322 198 268 165 207 248 247 249 248 263 264 235 236 212 206 187 165 171 169 165 171 170 172 179 178 189 185 144 137 162 180 183 182 177 171 167 169 169 168 167 170 151 131 133
148 90 45 57 89 265 183 198 325 175 214 261 258 253 248 261 258 227 204 148 148 146 160 163 169 175 168 177 181 187 194 176 166 170 180 183 181 183 184 175 170 170 166 168 172 176 155 132 121
153 105 301 315 47 251 184 218 252 267 238 224 247 250 257 253 219 191 184 171 159 170 166 168 174 181 174 181 188 193 197 187 186 179 183 179 181 188 192 172 169 172 172 166 151 159 166 147 150
212 186 191 206 253 273 116 247 265 224 240 250 287 279 290 292 229 207 200 181 178 177 172 175 184 189 190 191 196 195 190 189 192 185 184 189 193 190 177 177 163 162 160 157 159 166 180 142 144
183 191 235 334 43 15 259 273 282 235 278 300 288 293 276 258 238 227 187 192 170 176 186 183 189 193 196 201 195 196 194 192 196 181 180 182 178 163 164 170 169 166 163 164 163 168 173 158 149
188 176 76 213 199 248 275 255 265 295 280 336 351 332 316 307 330 251 189 213 201 191 191 197 196 202 184 194 197 199 199 193 192 169 176 174 164 161 164 167 167 167 167 163 165 170 172 154 144
190 244 234 209 190 252 260 270 187 214 138 292 306 316 313 302 250 233 223 214 197 185 192 200 204 193 190 193 192 191 198 189 182 182 177 173 166 169 173 170 164 168 171 171 168 171 176 156 137
219 260 238 234 238 219 230 256 285 270 275 287 277 286 332 267 248 230 229 220 211 212 207 207 206 205 208 195 194 199 192 186 183 189 181 170 172 172 170 168 167 170 170 172 174 171 176 157 155